Regional Weather Roundup
Issued by NWS

Home | Current Version | Previous Version | Text Only | Print | Product List | Glossary On
Versions: 1 2 3 4 5 6 7 8 9 10 11 12 13 14 15 16 17 18 19 20 21 22 23 24 25 26 27 28 29 30 31 32 33 34 35 36 37 38 39 40 41 42 43 44 45 46 47 48 49 50
000
ASUS45 KABQ 041210
RWRNM
WEATHER ROUNDUP FOR NEW MEXICO
NATIONAL WEATHER SERVICE ALBUQUERQUE NM
500 AM MST WED MAR 04 2015

NOTE: "FAIR" MEANS FEW OR NO CLOUDS BELOW 12,000 FEET AGL WITH NO
       SIGNIFICANT WEATHER OR OBSTRUCTIONS TO VISION.

      THIS PRODUCT IS RELEASED AS TWO VERSIONS.  ONE VERSION NEAR
      THE TOP OF THE HOUR CONTAINING PRELIMINARY DATA FROM ALBUQUERQUE
      AND OTHER STATIONS.  A FINAL VERSION WITH ADDITIONAL DATA IS
      ISSUED ABOUT 10 MINUTES AFTER THE HOUR.

NMZ501-503-504-510>518-041300-
NORTHWEST PLATEAU/NORTHCENTRAL MOUNTAINS

CITY           SKY/WX    TMP DP  RH WIND       PRES   REMARKS
FARMINGTON     CLOUDY    30  26  85 CALM      29.89R
6HR MIN TEMP:  28; 6HR MAX TEMP:  32; 6HR PCP: TRACE;

LOS ALAMOS     PTCLDY    28  25  86 CALM      29.88R
SANTA FE       PTCLDY    24  20  84 N5        29.86R WCI  18
6HR MIN TEMP:  23; 6HR MAX TEMP:  34;

TAOS           PTCLDY    19  12  73 CALM      29.87R
ANGEL FIRE     FAIR      23  17  76 W12G20    29.84R WCI  12

$$
NMZ402-403-502-505>509-041300-
WESTCENTRAL MOUNTAINS/SOUTHWEST MOUNTAINS

CITY           SKY/WX    TMP DP  RH WIND       PRES   REMARKS
GALLUP         PTCLDY    24  21  88 E3        29.90R
6HR MIN TEMP:  23; 6HR MAX TEMP:  33;

GRANTS         CLEAR     20  19  94 NW7       29.91R WCI  12
SILVER CITY    CLEAR     32  25  74 NW13      29.88S WCI  22

$$
NMZ407-409-411-412-041300-
SOUTHERN DESERTS

CITY           SKY/WX    TMP DP  RH WIND       PRES   REMARKS
LORDSBURG      CLOUDY    37  34  87 CALM      29.87S
DEMING         CLEAR     33  29  85 CALM      29.87S
6HR MIN TEMP:  33; 6HR MAX TEMP:  45;

LAS CRUCES     PTCLDY    40  37  87 W8        29.86S WCI  34
HOLLOMAN AFB   CLOUDY    47  44  89 W3        29.83F
ALAMOGORDO     CLOUDY    48  43  81 S8        29.85S
T OR C         CLEAR     38  25  59 NW6       29.86R WCI  33
6HR MIN TEMP:  36; 6HR MAX TEMP:  42;


$$
NMZ519>523-041300-
CENTRAL VALLEYS/CENTRAL HIGHLANDS

CITY           SKY/WX    TMP DP  RH WIND       PRES   REMARKS
ALBUQUERQUE    PTCLDY    34  27  75 NW5       29.89R WCI  30
6HR MIN TEMP:  31; 6HR MAX TEMP:  42;

MORIARTY ARPT  PTSUNNY   29  22  77 W3        29.90R
6HR MIN TEMP:  26; 6HR MAX TEMP:  36;

CLINES CORNERS MOCLDY    27  22  81 W9        29.85R WCI  18
6HR MIN TEMP:  26; 6HR MAX TEMP:  30;

BELEN          FAIR      29  25  86 NW3       29.89R
6HR MIN TEMP:  29; 6HR MAX TEMP:  36;

SOCORRO          N/A     37  27  67 NW5       29.89R WCI  33
6HR MIN TEMP:  34; 6HR MAX TEMP:  44;


$$
NMZ524>526-539-540-041300-
SOUTHCENTRAL MOUNTAINS

CITY           SKY/WX    TMP DP  RH WIND       PRES   REMARKS
RUIDOSO        MOCLDY    36  32  87 NW6       29.88F WCI  31

$$
NMZ527>531-041300-
NORTHEAST HIGHLANDS/NORTHEAST PLAINS

CITY           SKY/WX    TMP DP  RH WIND       PRES   REMARKS
LAS VEGAS      FOG       19  18  95 CALM      29.84R VSB 1
6HR MIN TEMP:  18; 6HR MAX TEMP:  34;

RATON          CLOUDY    28  27  96 S5        29.85R WCI  23
6HR MIN TEMP:  25; 6HR MAX TEMP:  29;

CLAYTON        FRZ RAIN  23  22  96 NE12      29.95R FOG     WCI  12
6HR MIN TEMP:  23; 6HR MAX TEMP:  27; 6HR PCP:  0.02;


$$
NMZ532>537-041300-
EASTCENTRAL PLAINS

CITY           SKY/WX    TMP DP  RH WIND       PRES   REMARKS
TUCUMCARI      CLOUDY    30  29  96 NE15      29.93R FOG     WCI  19
6HR MIN TEMP:  30; 6HR MAX TEMP:  36;

CANNON AFB     FOG       33  33  99 NE20      29.87F VSB 1   WCI  21
6HR MIN TEMP:  33; 6HR MAX TEMP:  47;

CLOVIS AIRPORT CLOUDY    34  30  86 NE18      29.88S VSB 1/2 WCI  23

$$
NMZ028-029-538-041300-
SOUTHEAST PLAINS

CITY           SKY/WX    TMP DP  RH WIND       PRES   REMARKS
ROSWELL        CLOUDY    47  41  80 CALM      29.83R
6HR MIN TEMP:  45; 6HR MAX TEMP:  49;

ARTESIA        MOCLDY    46  46 100 SW5       29.83R
CARLSBAD       CLOUDY    53  39  59 S7        29.85R
6HR MIN TEMP:  50; 6HR MAX TEMP:  59; 6HR PCP: TRACE;

HOBBS          CLOUDY    48  48 100 CALM      29.84R


$$


USA.gov is the U.S. government's official web portal to all federal, state and local government web resources and services.